Temp_Advection
nan nan nan nan nan nan nan nan nan nan nan nan nan nan nan nan nan nan nan nan nan nan nan nan nan nan nan nan nan nan nan nan nan nan nan nan nan nan nan nan nan nan nan nan
nan 0 0 0 -1 -0 -0 -0 -0 -0 -0 -0 -0 -0 -0 -0 -0 -0 -0 -0 -0 -0 -0 -1 -0 -0 -1 -1 -1 0 0 -0 2 1 0 0 0 -0 0 -0 -0 0 0 nan
nan 0 -0 1 -0 -0 -0 -0 -0 -0 -0 -0 -0 -0 -0 -1 -1 -0 -0 -0 -0 -0 -0 -0 -0 -0 -0 -1 -1 -1 -0 -0 1 1 1 1 0 0 -0 -0 -0 -0 -0 nan
nan 0 1 -0 -0 0 0 -0 -0 -0 -0 0 -0 -0 0 -1 -0 -0 -0 -0 -0 -0 -0 0 -0 -0 -0 -0 -0 -0 -1 -0 -0 1 1 1 0 1 0 0 -0 -0 -1 nan
nan 0 -0 -0 0 0 0 -0 -0 -0 -0 -0 -0 0 -0 -0 -0 -0 -0 -0 -0 -0 -0 -0 -0 -0 -0 -0 -0 -0 -1 -1 -0 1 1 1 1 1 1 0 0 -0 -0 nan
nan 0 1 -1 -0 0 -0 0 -0 -0 -0 -0 -0 -0 -0 1 0 -0 -0 -0 -0 0 -0 -0 -0 -0 -0 -0 -0 -1 -1 -0 -0 -0 1 1 1 1 0 -0 0 0 -0 nan
nan 0 0 -0 -0 -0 -0 -0 -0 -0 -0 -1 -0 -0 -1 -0 0 -0 -0 -0 -0 -0 -0 -0 -0 -0 -0 -0 -0 -0 -0 -0 -0 -0 -0 0 1 0 0 0 0 1 1 nan
nan 0 2 -0 0 0 -0 -0 -0 -0 -0 -0 -0 -0 -0 -0 -0 -0 -0 -1 -0 -0 -0 -0 -0 -0 -0 -0 -0 -0 -0 -0 -0 -0 -0 -0 0 0 0 0 1 1 1 nan
nan -0 -0 -0 -0 -0 -0 -0 -0 -0 -0 -0 -0 -0 -0 -0 -0 -0 -0 -1 -1 -0 -0 -0 -0 -0 -0 -0 -0 -0 -0 -0 -0 -0 -0 -0 -0 0 -0 1 1 0 1 nan
nan 0 -0 -0 -0 -0 -0 -0 -0 -0 -0 -0 -0 -0 -0 -0 -0 -0 -0 -0 -0 -0 -0 -0 -0 -0 -0 -0 -0 -0 -0 -0 -0 -0 -0 -0 -0 0 0 0 1 1 1 nan
nan 0 0 -0 -0 -0 -0 -0 -0 -0 -0 -0 -0 -0 -0 -0 -0 -0 -0 -0 -0 -0 -0 -0 -0 -0 -0 -0 -0 -0 -0 -0 -0 -0 -0 -0 -0 0 0 0 0 1 1 nan
nan -0 -0 -0 -0 -0 -0 -0 -0 -0 -0 -0 -0 -0 -0 -0 -0 -0 -0 -0 -0 -0 -0 -0 -0 -0 -0 -0 -0 -0 -0 -0 -0 -0 -0 -0 -0 -0 0 0 0 0 0 nan
nan -0 -0 -0 -0 -0 -0 -1 -0 -0 -0 -0 -0 -0 -0 -0 -0 -0 -0 -0 -0 -0 -0 -0 -0 -0 -0 -0 -0 -0 -0 -0 -0 -0 -0 -0 -0 -0 0 0 0 0 0 nan
nan -1 -0 0 0 -0 -0 -0 -0 -1 -0 -0 -0 -0 -0 -0 -0 -0 -0 -0 -0 -0 -0 -0 -0 -0 -0 -0 -0 -0 -0 -0 -0 -0 -0 -0 -0 -0 -0 0 0 1 1 nan
nan -0 -0 -0 -0 -0 -0 -0 -0 -0 -0 -0 -0 -0 -0 -0 -0 -0 -0 -0 -0 -0 -0 -0 -0 -0 -0 -0 -0 -0 -0 -0 -0 -0 -0 -0 -0 -0 -0 -0 0 0 0 nan
nan -0 -0 -0 -0 -0 -0 -0 -0 -0 -0 -0 -0 -0 -0 -0 -0 -0 -0 -0 -0 -0 -0 -1 -0 -0 -0 -1 -0 -0 -1 -0 -0 -0 -0 -0 -0 -0 -0 -0 0 0 0 nan
nan -0 -0 -0 -0 -0 -0 -0 -0 -0 -0 -0 -0 -0 -0 -0 -0 -0 -0 -0 -0 -0 -0 -0 -0 -0 -0 -0 -0 -0 -1 -0 -0 -0 -0 -0 -0 -0 -0 -0 -0 0 0 nan
nan -0 -0 -0 -0 -1 -1 -0 -0 -0 -0 -0 -0 -0 -0 -0 -0 -0 -0 -0 -1 -0 -0 -0 -0 -0 -0 -0 -0 -0 -0 -0 -0 -0 -0 -0 -0 -0 -0 -0 -0 0 0 nan
nan -0 -0 -0 -0 -1 -1 -0 -0 -0 -0 -0 -0 -0 -0 -0 -0 -0 -0 -0 -0 -1 -0 -0 -0 -0 -0 -0 -0 -0 -0 -0 -0 -0 -0 -0 -0 -0 -0 -0 -0 0 0 nan
nan 0 -0 -0 -0 -0 -1 -0 -0 -0 -0 -0 -0 -0 -0 -0 -0 -0 -0 -0 -0 -0 -0 -1 -0 -0 -0 -0 -0 -0 -0 -0 -0 -0 -0 -0 -0 -0 -0 -0 -0 -0 0 nan
nan 0 -0 -0 -0 -0 -0 -0 -0 -0 -0 -0 -0 -0 -0 -0 -0 -0 -0 -0 -0 -0 -0 -0 -0 -0 -0 -0 -0 -0 -0 -0 -0 -0 -0 -0 -0 -0 -0 0 0 0 0 nan
nan -0 -0 -0 -0 -0 -0 -0 -0 -0 -0 -0 -0 -0 -0 -0 -0 -0 -0 -0 -1 -0 -1 -0 -0 -0 -1 -0 -0 -0 -0 -0 -0 -0 -0 -0 -0 -0 0 0 0 0 0 nan
nan -0 -0 -0 -0 -0 -0 -0 -0 -0 -0 -0 -0 -0 -0 -0 0 -0 -0 -0 -0 -0 -1 -0 -1 -1 -0 -0 -0 -0 -0 -0 -0 -0 -0 -0 -0 0 0 0 0 0 0 nan
nan -0 -0 -0 -0 -0 -0 -0 -0 -0 -0 -0 -0 -0 -0 -0 -0 0 -0 -0 -0 -1 -0 -0 0 -1 -0 -0 -0 -0 -0 -0 -0 -0 -0 0 0 0 0 0 0 0 0 nan
nan -0 -0 -0 -0 -0 -0 -0 -0 -0 -0 -0 -0 -0 -0 -0 -0 -0 -0 -0 -0 -0 -0 -0 0 -0 -0 -0 -0 -0 -0 0 0 0 0 0 0 0 0 0 0 0 0 nan
nan -0 -0 -0 -0 -0 -0 -0 -0 -0 -0 -0 -0 -0 -0 -0 -0 -0 -0 -0 -0 -0 -0 -0 -0 -0 -0 -0 -0 0 0 0 0 0 0 0 0 0 0 0 0 0 0 nan
nan nan nan nan nan nan nan nan nan nan nan nan nan nan nan nan nan nan nan nan nan nan nan nan nan nan nan nan nan nan nan nan nan nan nan nan nan nan nan nan nan nan nan nan
Wind_Speed
15 10 2 3 9 9 10 8 5 12 7 14 16 12 17 21 23 24 26 28 28 30 32 28 26 23 19 14 8 2 6 13 24 29 24 22 25 26 31 37 42 45 53 57
5 4 9 8 8 4 6 8 4 10 2 15 19 17 16 23 25 25 26 27 28 28 29 29 28 27 23 18 13 5 8 8 19 25 26 24 25 24 27 31 35 43 51 56
5 3 6 9 4 3 2 4 5 5 9 15 16 14 15 20 23 24 24 25 27 29 28 27 26 26 24 20 15 9 2 2 7 20 27 25 25 26 22 27 29 36 40 42
6 4 10 4 3 1 1 1 4 5 10 13 17 22 6 17 22 23 24 25 27 29 27 25 25 23 20 18 15 12 8 3 2 13 22 28 27 31 26 26 24 27 32 31
4 10 2 6 4 1 1 3 5 8 11 16 22 17 6 23 24 23 24 24 24 24 22 24 23 21 19 18 16 14 11 7 5 6 16 22 27 29 30 28 29 27 31 32
8 13 13 5 3 1 4 4 8 10 11 14 18 8 6 27 27 26 23 23 25 23 23 22 23 21 21 20 19 16 14 11 7 2 7 17 24 27 30 31 29 29 31 28
11 13 3 2 1 5 4 3 8 9 13 15 9 11 22 22 22 23 24 25 23 23 23 23 23 23 22 21 20 17 15 12 8 5 1 7 18 24 30 32 31 31 32 32
2 4 12 5 4 3 4 4 7 10 12 14 16 18 19 20 21 21 23 25 24 24 23 23 23 23 23 22 20 19 16 14 10 6 4 2 7 18 26 33 33 30 31 31
2 3 5 5 9 4 3 7 9 12 13 15 17 18 19 21 21 20 20 21 22 23 22 23 22 22 22 22 20 18 15 13 11 8 6 4 3 9 18 26 28 29 30 32
1 6 3 7 4 4 5 7 10 11 12 14 17 18 18 18 20 20 19 20 21 20 20 22 22 21 20 20 20 18 16 13 12 9 7 5 3 6 10 18 23 26 26 27
2 3 7 9 3 5 8 9 10 12 12 13 15 17 17 19 18 19 18 19 19 21 21 22 22 21 21 20 18 18 15 13 11 11 8 6 4 4 8 12 17 20 23 25
2 4 4 3 6 7 8 10 11 12 14 12 13 15 16 16 15 16 20 19 20 19 20 21 21 19 20 19 17 17 16 14 12 11 10 6 5 3 6 10 12 14 19 22
2 4 8 11 7 5 10 11 12 14 12 13 12 14 15 15 14 14 13 16 18 20 20 20 20 20 20 19 17 15 15 14 14 11 10 9 6 4 5 7 11 13 14 16
2 7 5 0 5 12 11 11 12 11 11 11 11 12 13 14 13 12 13 15 17 18 19 20 20 20 22 22 20 16 16 14 12 12 11 10 8 6 5 7 9 12 14 15
2 4 7 9 11 11 11 10 10 10 11 12 11 12 14 15 14 14 14 16 16 16 18 19 20 19 21 21 18 16 14 13 12 10 8 10 8 7 7 7 8 10 12 14
6 5 6 8 10 10 11 10 11 11 11 12 14 14 15 15 15 14 14 16 18 18 17 19 19 19 21 20 20 17 15 12 11 11 9 8 9 8 6 7 9 9 11 13
6 4 8 9 11 13 12 12 11 12 12 12 13 16 17 16 15 14 15 15 16 14 15 17 19 18 21 21 17 16 16 13 10 10 9 9 10 9 7 6 7 9 11 13
8 9 10 13 16 17 15 13 12 11 11 11 12 15 17 16 17 17 16 17 16 14 11 17 16 20 19 19 15 16 15 11 10 9 8 7 7 8 6 6 8 9 11 13
10 11 12 13 15 17 16 15 13 12 11 10 11 13 15 16 16 16 16 16 14 17 17 19 19 18 20 19 17 17 11 9 8 7 7 7 6 7 5 6 7 8 11 12
11 11 12 14 14 15 16 13 13 12 10 10 11 12 14 15 15 15 14 14 12 16 20 23 17 18 22 21 19 15 11 9 9 8 7 6 6 6 8 8 9 9 11 12
11 11 12 13 15 13 13 12 12 10 9 8 10 11 13 15 15 14 13 13 14 14 20 18 13 19 24 22 19 13 10 8 7 7 6 5 4 5 6 7 8 9 11 12
12 12 12 13 14 12 9 10 9 8 7 8 9 10 11 13 13 12 12 13 18 17 22 18 12 21 21 19 15 13 10 8 7 6 5 4 3 4 4 5 7 9 10 11
12 11 13 13 13 11 8 6 6 5 7 6 8 10 10 12 11 12 15 15 16 19 22 15 17 20 18 13 11 9 8 6 5 4 4 3 4 4 5 6 7 7 8 9
11 11 13 13 10 8 8 6 5 6 7 6 7 8 10 12 10 8 12 15 16 18 17 15 17 19 15 11 8 6 4 3 2 2 2 3 4 5 6 6 7 7 9 10
11 13 11 8 6 6 7 6 5 8 8 8 7 6 7 8 11 13 13 15 15 16 16 13 12 13 11 11 9 5 4 3 2 1 2 4 5 5 6 7 8 10 13 15
10 7 7 7 6 6 5 5 5 7 8 9 6 6 8 8 10 10 11 12 13 12 12 12 11 11 10 10 9 7 5 5 4 5 5 7 9 11 13 14 15 17 18 21
7 7 6 4 4 5 5 6 6 8 9 8 9 8 10 10 10 10 10 11 11 11 10 9 8 8 8 7 7 8 7 8 9 9 11 12 13 14 16 17 19 20 20 20
Wind_Direction
300 296 205 42 16 14 22 356 14 337 340 359 349 5 8 3 359 357 358 357 356 357 1 3 2 3 7 8 0 5 201 184 180 197 214 217 212 209 212 217 221 217 207 205
274 243 244 235 47 32 18 356 340 328 359 353 336 331 348 2 358 358 354 352 350 354 360 2 3 3 3 2 2 37 230 250 166 189 200 217 206 205 208 209 211 213 213 214
299 329 298 246 67 48 137 31 316 356 328 334 335 335 331 359 356 351 350 346 347 353 357 359 3 3 -0 359 360 349 316 236 174 181 193 202 210 195 197 199 204 205 209 215
290 270 297 123 105 136 167 146 360 322 336 339 334 320 337 12 353 346 344 345 347 353 355 2 2 2 1 360 359 359 357 319 257 176 182 192 204 202 194 192 192 195 197 200
270 305 2 180 139 153 222 161 14 337 340 345 342 322 92 359 348 341 340 342 348 349 354 2 2 3 5 4 4 0 348 344 314 168 179 185 194 206 202 199 196 194 194 190
302 287 287 69 89 104 198 209 19 348 344 346 344 353 344 339 337 336 340 343 349 352 359 359 1 5 10 11 4 357 348 341 332 310 181 183 195 196 202 203 207 203 201 200
274 281 283 45 87 162 229 51 353 339 336 338 337 325 315 327 333 335 336 341 347 357 357 360 1 5 9 9 7 357 348 340 329 314 246 184 196 205 203 203 207 209 210 207
251 273 267 19 166 248 20 336 343 341 334 327 322 321 324 328 332 337 339 343 352 353 357 1 4 1 5 5 3 358 354 346 335 317 293 226 204 204 209 205 208 210 213 212
314 354 112 70 91 67 348 325 341 329 326 322 319 323 325 327 331 335 339 342 348 349 353 360 3 2 359 357 360 0 0 356 343 321 296 298 225 200 207 207 209 210 213 218
189 160 178 141 155 29 5 336 326 322 321 319 319 320 323 327 329 333 339 345 345 350 351 353 358 359 358 354 354 359 2 5 355 334 311 294 271 204 199 199 202 204 211 212
188 146 153 159 61 3 335 331 328 323 320 321 318 318 321 324 328 328 339 339 348 350 351 352 352 355 356 353 350 355 359 2 3 351 327 295 281 211 199 193 200 204 209 212
44 78 320 302 348 341 330 328 327 322 321 322 320 317 320 319 323 327 335 333 341 346 349 351 351 351 349 350 350 348 351 358 359 356 346 324 285 239 206 195 187 195 200 203
319 313 289 283 292 341 326 318 315 316 312 317 322 319 317 317 320 324 324 332 340 343 344 346 347 346 346 349 350 352 348 353 354 347 347 338 306 270 210 193 191 201 200 199
299 318 273 172 304 312 315 312 313 312 310 315 319 322 320 322 321 325 330 334 337 339 339 343 345 347 348 349 347 346 346 349 343 339 337 332 312 278 237 198 178 190 200 208
318 302 282 289 304 306 308 315 316 316 317 321 328 334 332 325 322 322 325 328 331 335 338 340 343 345 347 346 346 344 343 339 336 328 326 307 301 288 258 219 197 190 190 195
299 299 288 301 301 306 312 312 316 323 326 326 328 332 333 327 322 318 319 322 325 331 337 339 341 344 341 346 346 342 340 336 328 315 308 301 301 298 279 241 216 208 204 198
320 324 310 304 309 312 310 312 313 318 323 325 326 327 329 329 327 323 319 321 321 325 330 337 335 337 343 340 339 337 332 331 328 312 301 294 300 292 273 254 230 216 215 212
283 293 298 295 303 307 306 304 305 310 317 319 324 328 329 331 328 329 330 329 325 325 334 336 332 343 335 338 341 333 326 328 325 321 318 308 302 288 267 245 234 217 213 211
286 285 289 289 294 295 295 297 298 302 309 314 317 323 328 331 329 328 328 331 335 334 343 340 341 339 342 342 344 323 324 325 325 322 322 312 303 284 261 242 230 212 206 206
290 289 294 293 293 293 289 288 291 295 301 307 311 318 325 331 331 330 332 339 334 332 349 337 336 346 347 346 335 330 330 330 326 326 321 316 281 261 240 229 222 211 204 201
289 287 298 302 300 295 285 287 289 290 294 302 308 317 325 330 332 334 337 333 336 347 339 333 346 353 346 332 329 331 327 323 319 316 307 290 270 239 226 210 204 202 199 202
293 290 300 305 303 298 288 286 286 286 294 300 300 309 321 331 332 335 335 327 340 342 335 333 343 354 334 328 334 334 330 324 318 310 303 291 248 224 205 191 193 190 192 196
293 294 304 305 301 294 295 289 291 279 298 307 307 312 319 329 334 330 330 340 337 351 326 332 343 342 339 337 341 340 333 327 317 303 284 261 231 210 194 185 190 189 190 192
287 293 302 302 292 290 296 286 286 288 302 314 308 307 315 323 332 329 331 332 337 337 333 337 343 344 344 346 350 357 352 340 317 269 237 219 201 182 175 173 171 174 175 176
286 296 299 294 285 296 298 296 306 309 303 306 314 302 307 318 325 337 329 334 337 339 340 341 342 350 354 1 5 4 26 48 46 110 141 147 149 152 155 157 154 156 159 160
291 284 290 280 277 294 308 299 303 309 322 308 312 313 317 320 323 328 331 332 338 342 346 349 353 358 2 12 20 29 50 65 77 103 110 118 123 127 132 137 137 136 139 139
302 297 279 273 272 285 278 297 290 313 310 307 327 318 314 317 324 322 329 336 344 348 352 357 1 12 18 24 38 51 63 85 93 103 113 117 120 122 126 128 130 134 137 139
Height
1428 1425 1432 1436 1438 1439 1437 1437 1427 1429 1422 1432 1428 1422 1419 1416 1412 1406 1400 1394 1391 1383 1379 1376 1373 1368 1360 1355 1359 1356 1356 1360 1364 1369 1375 1379 1383 1389 1394 1399 1403 1410 1419 1429
1428 1424 1426 1426 1438 1438 1442 1443 1434 1431 1427 1436 1432 1426 1422 1419 1415 1411 1404 1399 1395 1390 1384 1377 1372 1367 1362 1361 1358 1356 1358 1363 1357 1365 1370 1376 1379 1385 1390 1395 1400 1406 1414 1422
1418 1426 1427 1416 1443 1442 1446 1449 1447 1437 1440 1437 1431 1428 1424 1423 1420 1415 1412 1407 1400 1394 1389 1381 1376 1370 1367 1364 1359 1361 1360 1355 1357 1361 1367 1372 1378 1384 1386 1390 1396 1402 1409 1415
1424 1425 1416 1441 1442 1443 1443 1448 1448 1445 1441 1438 1434 1427 1424 1426 1424 1420 1414 1407 1398 1392 1390 1383 1378 1374 1372 1368 1365 1359 1357 1357 1358 1359 1363 1368 1374 1380 1384 1390 1394 1399 1405 1410
1425 1414 1424 1435 1440 1444 1444 1443 1447 1445 1441 1437 1433 1424 1425 1423 1423 1420 1415 1409 1404 1399 1394 1387 1383 1379 1375 1369 1363 1360 1362 1360 1359 1357 1360 1365 1370 1377 1381 1386 1392 1397 1402 1407
1420 1420 1413 1431 1444 1446 1446 1435 1448 1446 1442 1438 1434 1427 1427 1427 1420 1415 1413 1408 1402 1399 1392 1389 1384 1378 1373 1367 1363 1363 1363 1361 1358 1358 1359 1361 1366 1372 1376 1384 1390 1394 1400 1404
1410 1407 1414 1442 1442 1444 1435 1442 1448 1447 1444 1441 1438 1438 1432 1428 1425 1418 1411 1406 1402 1397 1393 1388 1383 1377 1372 1369 1368 1368 1365 1361 1359 1357 1357 1359 1361 1369 1372 1378 1384 1389 1396 1400
1417 1416 1411 1441 1440 1438 1446 1446 1445 1445 1443 1441 1439 1435 1431 1428 1423 1419 1414 1405 1400 1397 1392 1389 1383 1379 1374 1370 1369 1366 1363 1360 1359 1358 1359 1360 1362 1364 1369 1373 1378 1383 1389 1396
1430 1426 1441 1442 1443 1444 1445 1445 1443 1444 1441 1439 1436 1433 1429 1424 1421 1419 1414 1410 1403 1397 1394 1390 1386 1383 1377 1376 1372 1369 1365 1361 1360 1359 1360 1358 1360 1362 1364 1367 1372 1377 1384 1392
1435 1439 1439 1441 1443 1443 1444 1443 1442 1442 1440 1437 1434 1431 1428 1424 1419 1416 1413 1409 1405 1402 1397 1392 1390 1387 1382 1378 1373 1370 1365 1362 1361 1361 1360 1360 1359 1360 1362 1364 1368 1374 1379 1385
1431 1438 1439 1441 1442 1443 1443 1441 1440 1439 1438 1436 1433 1429 1426 1423 1419 1414 1411 1409 1405 1401 1398 1394 1390 1386 1383 1378 1376 1370 1368 1366 1364 1363 1361 1361 1361 1359 1362 1363 1365 1370 1375 1381
1429 1440 1441 1441 1442 1442 1442 1440 1439 1437 1435 1434 1431 1428 1425 1422 1419 1415 1411 1408 1405 1403 1399 1395 1392 1389 1385 1381 1376 1373 1370 1366 1363 1363 1362 1361 1362 1361 1361 1362 1363 1368 1372 1378
1440 1442 1442 1442 1441 1440 1440 1438 1436 1435 1433 1431 1429 1427 1424 1421 1417 1416 1412 1409 1405 1401 1399 1396 1393 1389 1385 1381 1375 1371 1370 1365 1361 1362 1361 1361 1362 1361 1360 1362 1362 1367 1372 1377
1441 1440 1439 1439 1439 1438 1437 1436 1433 1432 1430 1429 1427 1425 1421 1418 1416 1413 1412 1410 1405 1402 1399 1394 1390 1385 1380 1374 1369 1367 1363 1361 1363 1362 1360 1360 1361 1360 1362 1361 1361 1366 1369 1374
1440 1439 1439 1438 1437 1436 1434 1433 1430 1429 1426 1425 1424 1422 1420 1417 1414 1412 1409 1407 1405 1402 1398 1392 1388 1384 1380 1376 1373 1370 1367 1367 1364 1364 1363 1365 1364 1361 1360 1359 1361 1364 1368 1372
1438 1437 1436 1435 1435 1433 1432 1430 1428 1426 1424 1421 1419 1419 1417 1415 1412 1409 1408 1405 1402 1399 1397 1392 1388 1386 1382 1377 1372 1370 1367 1364 1363 1363 1363 1363 1361 1359 1358 1358 1360 1362 1365 1369
1436 1435 1434 1433 1432 1431 1429 1428 1425 1423 1421 1419 1417 1415 1413 1411 1409 1407 1404 1402 1400 1398 1395 1392 1390 1387 1381 1377 1373 1370 1367 1364 1363 1364 1362 1360 1358 1358 1357 1356 1357 1358 1363 1366
1434 1433 1432 1431 1429 1427 1426 1424 1422 1420 1418 1416 1414 1412 1410 1408 1405 1403 1401 1398 1394 1393 1392 1389 1387 1384 1381 1376 1371 1369 1365 1363 1363 1361 1358 1357 1356 1357 1356 1356 1358 1358 1363 1366
1430 1429 1428 1427 1426 1424 1422 1421 1419 1417 1415 1413 1412 1410 1408 1405 1403 1400 1397 1395 1392 1389 1386 1384 1382 1379 1375 1372 1371 1368 1365 1362 1361 1358 1356 1353 1353 1356 1356 1357 1359 1359 1361 1363
1427 1426 1425 1423 1422 1420 1418 1417 1416 1414 1412 1411 1409 1407 1405 1403 1401 1398 1395 1393 1391 1389 1385 1380 1377 1374 1371 1368 1365 1361 1359 1357 1356 1353 1353 1353 1356 1358 1357 1356 1357 1356 1358 1359
1423 1422 1421 1420 1418 1416 1414 1413 1412 1411 1410 1408 1407 1405 1403 1401 1398 1396 1394 1392 1389 1386 1385 1380 1376 1372 1368 1366 1362 1360 1358 1357 1356 1355 1355 1356 1356 1357 1356 1354 1354 1356 1357 1359
1419 1418 1417 1416 1414 1412 1411 1410 1409 1408 1407 1406 1405 1403 1401 1399 1397 1395 1393 1391 1387 1385 1383 1379 1377 1375 1371 1364 1359 1357 1355 1354 1354 1353 1353 1354 1355 1355 1354 1353 1356 1357 1359 1361
1415 1414 1413 1412 1411 1409 1408 1407 1407 1406 1405 1404 1403 1401 1400 1398 1397 1394 1391 1389 1386 1384 1380 1377 1376 1374 1370 1365 1362 1359 1357 1355 1355 1355 1356 1355 1355 1355 1356 1356 1357 1357 1357 1360
1411 1411 1410 1409 1407 1407 1406 1405 1404 1404 1402 1402 1401 1400 1398 1396 1395 1394 1391 1388 1385 1384 1379 1376 1374 1372 1367 1365 1363 1362 1360 1359 1358 1357 1356 1357 1356 1355 1355 1355 1355 1357 1358 1362
1408 1407 1406 1405 1405 1405 1403 1403 1402 1401 1400 1399 1399 1398 1397 1395 1394 1392 1390 1388 1384 1381 1377 1374 1372 1370 1367 1365 1363 1361 1361 1360 1358 1357 1357 1356 1355 1354 1355 1357 1356 1359 1363 1366
1405 1404 1404 1403 1402 1402 1401 1401 1401 1400 1399 1397 1396 1396 1395 1394 1393 1391 1389 1387 1384 1381 1378 1375 1373 1370 1368 1366 1364 1362 1361 1359 1359 1358 1357 1357 1357 1357 1359 1361 1362 1364 1369 1372
1403 1403 1402 1401 1401 1401 1400 1399 1399 1398 1397 1395 1394 1394 1393 1392 1391 1390 1388 1386 1383 1381 1379 1377 1375 1372 1370 1368 1366 1364 1363 1362 1362 1362 1362 1363 1363 1364 1366 1368 1370 1373 1377 1378